[Iaude] MPEC G92: 2024 GG1 [a=1.57,e=0.43,i=9.3,H=22.0]

mpec at cfa.harvard.edu mpec at cfa.harvard.edu
Mon Apr 8 06:20:21 EDT 2024


M.P.E.C. 2024-G92                                 Issued 2024 April 8, 10:18 UT

     The Minor Planet Electronic Circulars contain information on unusual
         minor planets, routine data on comets and natural satellites,
         and occasional editorial announcements.  They are published
    on behalf of Division F of the International Astronomical Union by the
          Minor Planet Center, Smithsonian Astrophysical Observatory,
                          Cambridge, MA 02138, U.S.A.
			  
             Prepared using the Tamkin Foundation Computer Network

                              MPC at CFA.HARVARD.EDU
            URL https://www.minorplanetcenter.net/    ISSN 1523-6714

                                    2024 GG1                                    


Observations:
     K24G01G*KC2024 04 06.05143 09 30 13.69 -11 02 28.3          20.3 GVEG092W94
     K24G01G KC2024 04 06.05751 09 30 16.60 -11 02 12.7          20.2 GVEG092W94
     K24G01G KC2024 04 06.06361 09 30 19.53 -11 01 56.9          19.5 GVEG092W94
     K24G01G KC2024 04 06.16008 09 31 05.42 -10 57 43.2                VEG092W95
     K24G01G KC2024 04 06.16545 09 31 08.02 -10 57 28.9                VEG092W95
     K24G01G KC2024 04 06.17082 09 31 10.53 -10 57 14.4          19.2 GVEG092W95
     K24G01G KC2024 04 06.31060109 32 22.210-10 50 58.96         19.8 GVEG092474
     K24G01G KC2024 04 06.31319009 32 23.422-10 50 52.22         20.4 GVEG092474
     K24G01G KC2024 04 06.31577909 32 24.679-10 50 45.10         20.4 GVEG092474
     K24G01G KC2024 04 06.31836809 32 25.906-10 50 38.51         20.2 GVEG092474
     K24G01G KC2024 04 06.44677309 33 26.585-10 45 07.24         20.1 GVEG092474
     K24G01G KC2024 04 06.44936009 33 27.814-10 45 00.54         20.1 GVEG092474
     K24G01G KC2024 04 06.45194909 33 29.023-10 44 54.06         20.1 GVEG092474
     K24G01G KC2024 04 06.45453709 33 30.286-10 44 47.54         19.9 GVEG092474
     K24G01G KC2024 04 06.84401509 36 38.43 -10 29 15.7          19.9 GXEG092L01
     K24G01G KC2024 04 06.84934009 36 40.88 -10 29 02.5          20.0 GXEG092L01
     K24G01G KC2024 04 06.85467509 36 43.35 -10 28 48.6          19.9 GXEG092L01
     K24G01G KB2024 04 06.97431309 37 40.800-10 22 58.91         20.0 VZEG092Y05
     K24G01G KB2024 04 06.98731509 37 46.721-10 22 25.54         19.9 VZEG092Y05
     K24G01G KB2024 04 07.00011109 37 52.582-10 21 54.50         21.0 VZEG092Y05
     K24G01G KC2024 04 07.06627 09 38 23.90 -10 19 04.4          19.5 GVEG092W94
     K24G01G KC2024 04 07.07238 09 38 26.67 -10 18 48.9          19.6 GVEG092W94
     K24G01G KC2024 04 07.07848 09 38 29.45 -10 18 33.2          19.9 GVEG092W94
     K24G01G KC2024 04 07.08010309 38 31.14 -10 19 15.3          20.2 GVEG092H21
     K24G01G KC2024 04 07.08289809 38 32.41 -10 19 08.0          20.2 GVEG092H21
     K24G01G KC2024 04 07.08569409 38 33.68 -10 19 00.9          20.3 GVEG092H21
     K24G01G KC2024 04 07.08848909 38 34.98 -10 18 53.8          20.1 GVEG092H21
     K24G01G KC2024 04 07.37640309 40 49.898-10 05 50.60         20.3 GVEG092474
     K24G01G KC2024 04 07.37899309 40 51.060-10 05 43.98         20.2 GVEG092474
     K24G01G KC2024 04 07.38158309 40 52.241-10 05 37.57         19.7 GVEG092474
     K24G01G KC2024 04 07.38417209 40 53.393-10 05 30.91         20.3 GVEG092474
     K24G01G KB2024 04 07.82469309 44 17.04 -09 48 24.1          20.2 GXEG092I93
     K24G01G KB2024 04 07.83208709 44 20.28 -09 48 05.7                XEG092I93
     K24G01G KB2024 04 07.83946509 44 23.58 -09 47 47.4          20.1 GXEG092I93
     K24G01G KC2024 04 07.92581 09 45 00.80 -09 43 27.0                VEG092M21
     K24G01G KC2024 04 07.94569 09 45 09.55 -09 42 36.7          20.0 GVEG092M21

Observer details:
474 Mount John Observatory, Lake Tekapo.  Observers A. C. Gilmore, P. M.
    Kilmartin.  Measurer P. M. Kilmartin.  0.6-m f/6.3 Reflector + CCD.
H21 Astronomical Research Observatory, Westfield.  Observer R. Holmes.
    Measurers T. Linder, R. Holmes, L. Horn.  0.76-m f/3.0 astrograph + CCD.
I93 St Pardon de Conques.  Observer F. Losse.  0.40-m f/3.7 reflector + CCD.
L01 Visnjan Observatory, Tican.  Observers K. Korlevic, G. D'Agostino, G.
    Kervina, E. Pettarin, L. Poropat.  Measurer E. Pettarin.  1.0-m f/2.9
    reflector + CCD.
M21 Schiaparelli Southern Observatory, Hakos.  Observers A. Aletti, F.
    Bellini, L. Buzzi, G. Galli.  Measurer L. Buzzi.  0.36-m f/8.4 reflector +
    CCD.
W94 MAP, San Pedro de Atacama.  Observers A. Maury, G. Attard.  Measurers A.
    Maury, G. Attard, D. Parrott, F. Signoret, J.-M. Mari.  0.36-m f/1.9
    Schmidt astrograph + CCD.
W95 Observatorio Panameno, San Pedro de Atacama.  Observers A. Maury, G.
    Attard, F. Signoret.  Measurers A. Maury, G. Attard, D. Parrott, J.-M.
    Mari, F. Signoret.  0.40-m f/3.8  reflector + CCD.
Y05 SONEAR Wykrota-CEAMIG, Serra da Piedade.  Observers C. Jacques, A.
    Caetano, E. Pimentel.  Measurer C. Jacques.  0.45-m f/2.9 reflector + CMO.

Orbital elements:
2024 GG1                                                 Earth MOID = 0.0897 AU
Epoch 2024 Mar. 31.0 TT = JDT 2460400.5                 Veres                   
M  26.98140              (2000.0)            P               Q                  
n   0.50053744     Peri.  264.43507     -0.47398989     -0.87575886             
a   1.5710078      Node   214.34384     +0.85840687     -0.43641889             
e   0.4305055      Incl.    9.33831     +0.19614082     -0.20636128             
P   1.97           H   22.00          G   0.15           U   8                  
Residuals in seconds of arc
240406 W94  0.3-  0.1+    240406 474  0.3-  0.1-    240407 H21  0.1-  0.0
240406 W94  0.0   0.2-    240406 474  0.3+  0.2-    240407 H21  0.2-  0.1+
240406 W94  0.4+  0.3-    240406 L01  0.6+  0.3+    240407 H21  0.2+  0.2+
240406 W95  0.0   0.3+    240406 L01  0.3+  0.1-    240407 474  0.1+  0.1-
240406 W95  0.5+  0.4+    240406 L01  0.3+  0.2+    240407 474  0.0   0.0
240406 W95  0.3-  0.8+    240406 Y05  0.3-  0.4+    240407 474  0.2+  0.0
240406 474  0.1+  0.3-    240406 Y05  0.3-  0.8+    240407 474  0.1-  0.2+
240406 474  0.1-  0.3-    240407 Y05  0.2+  0.6-    240407 I93  0.1-  0.8-
240406 474  0.3+  0.2+    240407 W94  0.2-  0.1-    240407 I93  0.6-  0.5-
240406 474  0.2+  0.2+    240407 W94  0.3-  0.0     240407 I93  0.1-  0.3-
240406 474  0.2-  0.2+    240407 W94  0.1-  0.2+    240407 M21  0.1+  0.7-
240406 474  0.1-  0.2+    240407 H21  0.0   0.3-    240407 M21  0.3-  0.4+

Ephemeris:
2024 GG1                 a,e,i = 1.57, 0.43, 9                   q = 0.8947
Date    TT    R. A. (2000) Decl.     Delta      r    Elong.  Phase     V
2024 03 09    04 31 08.8 -23 07 44   0.1810  0.9699    77.5    92.0    21.5
...
2024 03 24    07 13 33.3 -20 35 58   0.1509  1.0454   104.7    67.3    20.4
...
2024 04 01    08 43 53.4 -14 54 11   0.1640  1.0918   120.6    52.0    20.2
...
2024 04 07    09 37 52.5 -10 22 04   0.1877  1.1285   129.0    43.6    20.3
2024 04 08    09 45 35.9 -09 40 39   0.1926  1.1348   130.0    42.5    20.3
2024 04 09    09 52 58.9 -09 00 47   0.1978  1.1410   131.0    41.5    20.4
...
2024 04 15    10 30 55.2 -05 36 27   0.2336  1.1792   134.6    37.3    20.7
...
2024 04 23    11 08 26.8 -02 31 47   0.2917  1.2309   135.6    34.8    21.2
...
2024 05 08    11 55 54.8 +00 05 06   0.4245  1.3290   131.5    34.7    22.2

M. P. C. Staff               (C) Copyright 2024 MPC           M.P.E.C. 2024-G92





More information about the Iaude mailing list